Ogden, UT

6:56 AM MDT on May 24, 2018 (GMT -0600)
Ogden-Hinckley

Weather History for KOGD - February, 2014

Change the Weather History Date:

Tuesday, February 11, 2014

  Actual Average Record
Temperature  
Mean Temperature 38 °F -  
Max Temperature 45 °F 42 °F 64 °F (1961)
Min Temperature 30 °F 22 °F -5 °F (1955)
Degree Days  
Heating Degree Days 28    
Moisture  
Dew Point 25 °F    
Average Humidity 64    
Maximum Humidity 72    
Minimum Humidity 51    
Precipitation  
Precipitation 0.00 in - - ()
Sea Level Pressure  
Sea Level Pressure 30.18 in    
Wind  
Wind Speed 8 mph (South)    
Max Wind Speed 10 mph    
Max Gust Speed -    
Visibility 10 miles    
Events      
Averages and records for this station are not official NWS values.
T = Trace of Precipitation, MM = Missing Value Source: NWS Daily Summary

Daily Weather History Graph

Daily Weather History Graph

Search for Another Location

Airport or City:

Astronomy

Feb. 11, 2014 Rise Set
Actual Time 7:27 AM MST 5:57 PM MST
Civil Twilight 6:59 AM MST 6:25 PM MST
Nautical Twilight 6:26 AM MST 6:58 PM MST
Astronomical Twilight 5:54 AM MST 7:30 PM MST
Moon 3:20 PM MST (2/11) 5:08 AM MST (2/11)
Length of Visible Light 11h 26m
Length of Day
10h 29m
Waxing Gibbous, 91% of the Moon is Illuminated
Feb 11
Waxing Gibbous
Feb 14
Full
Feb 22
Last Quarter
Mar 1
New
Mar 8
First Quarter

Hourly Weather History & Observations

Time (MST) Temp. Windchill Dew Point Humidity Pressure Visibility Wind Dir Wind Speed Gust Speed Precip Events Conditions
12:53 AM 30.9 °F 23.5 °F 23.0 °F 72% 30.20 in 10.0 mi South 8.1 mph - N/A   Clear
1:53 AM 30.9 °F 24.3 °F 21.9 °F 69% 30.20 in 10.0 mi SSE 6.9 mph - N/A   Clear
2:53 AM 30.9 °F 24.3 °F 21.9 °F 69% 30.19 in 10.0 mi South 6.9 mph - N/A   Partly Cloudy
3:53 AM 30.9 °F 23.5 °F 23.0 °F 72% 30.19 in 10.0 mi South 8.1 mph - N/A   Overcast
4:53 AM 32.0 °F 24.8 °F 21.9 °F 66% 30.19 in 10.0 mi South 8.1 mph - N/A   Overcast
5:53 AM 30.9 °F 22.2 °F 23.0 °F 72% 30.18 in 10.0 mi SSE 10.4 mph - N/A   Overcast
6:53 AM 30.9 °F 22.8 °F 21.0 °F 67% 30.17 in 10.0 mi South 9.2 mph - N/A   Clear
7:53 AM 30.9 °F 24.3 °F 21.9 °F 69% 30.19 in 10.0 mi South 6.9 mph - N/A   Overcast
8:53 AM 33.1 °F 26.1 °F 21.9 °F 64% 30.19 in 10.0 mi South 8.1 mph - N/A   Overcast
9:53 AM 35.1 °F 27.9 °F 24.1 °F 64% 30.20 in 10.0 mi SSE 9.2 mph - N/A   Overcast
10:53 AM 37.9 °F 30.9 °F 25.0 °F 60% 30.21 in 10.0 mi SSE 10.4 mph - 0.00 in   Overcast
11:53 AM 41.0 °F 35.2 °F 27.0 °F 57% 30.17 in 10.0 mi SSE 9.2 mph - N/A   Overcast
12:53 PM 43.0 °F 37.7 °F 27.0 °F 53% 30.13 in 10.0 mi South 9.2 mph - N/A   Overcast
1:53 PM 43.0 °F 41.3 °F 26.1 °F 51% 30.15 in 10.0 mi SSW 3.5 mph - N/A   Overcast
2:53 PM 44.1 °F 42.5 °F 28.0 °F 53% 30.15 in 10.0 mi Variable 3.5 mph - N/A   Mostly Cloudy
3:53 PM 45.0 °F 41.8 °F 28.9 °F 53% 30.14 in 10.0 mi West 5.8 mph - N/A   Scattered Clouds
4:53 PM 44.1 °F 42.5 °F 28.9 °F 55% 30.15 in 10.0 mi WSW 3.5 mph - N/A   Partly Cloudy
5:53 PM 42.1 °F 39.2 °F 28.9 °F 60% 30.16 in 10.0 mi SW 4.6 mph - N/A   Mostly Cloudy
6:53 PM 39.9 °F 36.7 °F 28.0 °F 63% 30.19 in 10.0 mi SSE 4.6 mph - N/A   Partly Cloudy
7:53 PM 37.0 °F 31.6 °F 28.0 °F 70% 30.20 in 10.0 mi South 6.9 mph - N/A   Scattered Clouds
8:53 PM 37.9 °F 32.7 °F 28.0 °F 68% 30.20 in 10.0 mi South 6.9 mph - N/A   Overcast
9:53 PM 37.0 °F 31.6 °F 28.0 °F 70% 30.21 in 10.0 mi South 6.9 mph - N/A   Clear
10:53 PM 37.0 °F 30.4 °F 27.0 °F 67% 30.21 in 10.0 mi South 9.2 mph - N/A   Partly Cloudy
11:53 PM 35.1 °F 28.6 °F 27.0 °F 72% 30.19 in 10.0 mi South 8.1 mph - N/A   Partly Cloudy